This is the latest recevied weather packets stored in our database for station/object W9LRT-WX. If no packets are shown the sender has not sent any weather packets the latest 10 day(s).
| Time | Temp. | Humidity | Pressure | Rain* | Wind** | Luminosity | Snow |
|---|---|---|---|---|---|---|---|
| 1778014290 | 12.22° C | 56% | 1007.4 hPa | 0 mm | - | 179 W/m² | - |
| 1778013393 | 12.78° C | 58% | 1007.2 hPa | 0 mm | - | 211 W/m² | - |
| 1778012490 | 12.78° C | 60% | 1007.2 hPa | 0 mm | - | 204 W/m² | - |
| 1778011589 | 13.33° C | 62% | 1007.1 hPa | 0 mm | - | 190 W/m² | - |
| 1778010689 | 13.33° C | 65% | 1007.3 hPa | 0 mm | - | 260 W/m² | - |
| 1778009790 | 13.33° C | 65% | 1007.4 hPa | 0 mm | - | 397 W/m² | - |
| 1778008889 | 13.33° C | 65% | 1007.5 hPa | 0 mm | - | 504 W/m² | - |
| 1778007990 | 12.78° C | 66% | 1007.8 hPa | 0 mm | - | 508 W/m² | - |
| 1778007089 | 12.78° C | 66% | 1007.9 hPa | 0 mm | - | 364 W/m² | - |
| 1778006190 | 13.33° C | 69% | 1007.8 hPa | 0 mm | - | 744 W/m² | - |
| 1778005292 | 12.22° C | 71% | 1007.7 hPa | 0 mm | - | 408 W/m² | - |
| 1778004386 | 12.22° C | 70% | 1007.7 hPa | 0 mm | - | 450 W/m² | - |
| 1778003489 | 11.67° C | 72% | 1007.6 hPa | 0 mm | - | 900 W/m² | - |
| 1778002587 | 11.67° C | 72% | 1007.8 hPa | 0 mm | - | 580 W/m² | - |
| 1778001685 | 11.67° C | 70% | 1007.7 hPa | 0 mm | - | 680 W/m² | - |
| 1778000787 | 11.11° C | 72% | 1007.9 hPa | 0 mm | - | 947 W/m² | - |
| 1777999885 | 9.44° C | 73% | 1008 hPa | 0 mm | - | 990 W/m² | - |
| 1777998983 | 8.89° C | 77% | 1007.9 hPa | 0 mm | - | 396 W/m² | - |
| 1777998082 | 8.33° C | 77% | 1007.8 hPa | 0 mm | - | 343 W/m² | - |
| 1777997183 | 7.78° C | 81% | 1007.7 hPa | 0 mm | - | 325 W/m² | - |
| 1777996282 | 7.22° C | 82% | 1007.5 hPa | 0 mm | - | 283 W/m² | - |
| 1777995383 | 7.22° C | 82% | 1007.4 hPa | 0 mm | - | 174 W/m² | - |
| 1777994482 | 6.67° C | 81% | 1007.5 hPa | 0 mm | - | 169 W/m² | - |
| 1777993583 | 7.78° C | 79% | 1007.6 hPa | 0 mm | - | 104 W/m² | - |
| 1777992682 | 7.78° C | 77% | 1008 hPa | 0 mm | - | 79 W/m² | - |
* Rain latest hour (hover to see other rain measurements)
** Current wind speed in m/s (hover to see current wind gust speed)